| time (UTC) | temp F | wind direction | speed knots | gust knots | rain 1hr in | rain 24hr in | rain mn in | humidity % | barometer mb |
| 20260507055305 | 43 | 81 | 1.7 | 8.7 | 0.00 | 0.68 | 0.00 | 78 | 1012.4 |
| 20260507053803 | 43 | 267 | 5.2 | 11.3 | 0.00 | 0.68 | 0.00 | 82 | 1012.4 |
| 20260507053304 | 43 | 289 | 4.3 | 12.2 | 0.00 | 0.68 | 0.00 | 83 | 1012.4 |
| 20260507052803 | 43 | 278 | 5.2 | 11.3 | 0.00 | 0.68 | 0.00 | 84 | 1012.5 |
| 20260507052306 | 43 | 260 | 6.1 | 11.3 | 0.00 | 0.68 | 0.00 | 84 | 1012.3 |
| 20260507051803 | 43 | 283 | 6.1 | 13.9 | 0.00 | 0.68 | 0.00 | 84 | 1012.3 |
| 20260507051303 | 43 | 256 | 5.2 | 14.8 | 0.00 | 0.68 | 0.00 | 84 | 1012.3 |
| 20260507050804 | 43 | 263 | 6.1 | 14.8 | 0.00 | 0.68 | 0.00 | 84 | 1012.2 |
| 20260507050303 | 43 | 267 | 5.2 | 8.7 | 0.00 | 0.68 | 0.00 | 85 | 1012.1 |
| 20260507045803 | 43 | 293 | 4.3 | 10.4 | 0.00 | 0.68 | 0.00 | 85 | 1012.2 |
| 20260507045306 | 43 | 265 | 6.1 | 10.4 | 0.00 | 0.68 | 0.00 | 85 | 1012.1 |
| 20260507044305 | 43 | 244 | 5.2 | 11.3 | 0.00 | 0.68 | 0.00 | 86 | 1012.2 |
| 20260507043804 | 43 | 283 | 7.0 | 11.3 | 0.00 | 0.68 | 0.00 | 86 | 1012.2 |
| 20260507042306 | 44 | 249 | 2.6 | 15.6 | 0.00 | 0.68 | 0.00 | 87 | 1012.0 |
| 20260507041803 | 44 | 260 | 6.1 | 15.6 | 0.00 | 0.69 | 0.00 | 88 | 1011.9 |
| 20260507041303 | 44 | 259 | 2.6 | 6.1 | 0.00 | 0.69 | 0.00 | 88 | 1011.9 |
| 20260507040803 | 44 | 276 | 2.6 | 7.0 | 0.00 | 0.70 | 0.00 | 88 | 1011.7 |
| 20260507040304 | 44 | 257 | 4.3 | 7.8 | 0.00 | 0.72 | 0.00 | 88 | 1011.9 |
| 20260507035306 | 44 | 289 | 3.5 | 7.0 | 0.00 | 1.27 | 0.72 | 89 | 1011.6 |
| 20260507034303 | 44 | 297 | 4.3 | 7.8 | 0.00 | 1.30 | 0.72 | 89 | 1011.8 |
| 20260507033803 | 44 | 259 | 4.3 | 7.8 | 0.00 | 1.32 | 0.72 | 89 | 1011.9 |
| 20260507032803 | 44 | 302 | 1.7 | 5.2 | 0.00 | 1.35 | 0.72 | 90 | 1011.6 |
| 20260507032305 | 44 | 235 | 0.9 | 2.6 | 0.00 | 1.36 | 0.72 | 90 | 1011.7 |
| 20260507031803 | 44 | 20 | 0.9 | 6.1 | 0.00 | 1.37 | 0.72 | 90 | 1011.7 |
| 20260507031303 | 44 | 308 | 1.7 | 6.1 | 0.00 | 1.38 | 0.72 | 90 | 1011.7 |
| 20260507030802 | 44 | 278 | 0.9 | 2.6 | 0.00 | 1.38 | 0.72 | 90 | 1011.7 |
| 20260507030303 | 44 | 214 | 0.9 | 5.2 | 0.00 | 1.40 | 0.72 | 90 | 1011.6 |
| 20260507025803 | 44 | 254 | 2.6 | 7.0 | 0.00 | 1.41 | 0.72 | 90 | 1011.8 |
| 20260507025306 | 44 | 280 | 2.6 | 7.0 | 0.00 | 1.41 | 0.72 | 90 | 1011.8 |
| 20260507024803 | 45 | 272 | 3.5 | 5.2 | 0.00 | 1.41 | 0.72 | 90 | 1011.6 |
| 20260507024303 | 45 | 358 | 1.7 | 5.2 | 0.00 | 1.41 | 0.72 | 89 | 1011.6 |
| 20260507023803 | 45 | 354 | 1.7 | 2.6 | 0.00 | 1.42 | 0.72 | 89 | 1011.7 |
| 20260507021803 | 45 | 6 | 0.0 | 1.7 | 0.00 | 1.44 | 0.72 | 89 | 1011.7 |
| 20260507021304 | 45 | 349 | 0.0 | 1.7 | 0.00 | 1.46 | 0.72 | 89 | 1011.9 |
| 20260507020302 | 45 | 281 | 0.9 | 2.6 | 0.00 | 1.48 | 0.72 | 89 | 1011.6 |
| 20260507015804 | 45 | 264 | 1.7 | 2.6 | 0.00 | 1.49 | 0.72 | 89 | 1011.9 |
| 20260507015306 | 45 | 213 | 0.0 | 1.7 | 0.00 | 1.50 | 0.72 | 89 | 1011.9 |
| 20260507014803 | 45 | 337 | 0.0 | 1.7 | 0.00 | 1.51 | 0.72 | 89 | 1011.9 |
| 20260507014303 | 45 | 268 | 0.0 | 1.7 | 0.00 | 1.53 | 0.72 | 88 | 1011.8 |
| 20260507013803 | 45 | 306 | 0.9 | 1.7 | 0.00 | 1.54 | 0.72 | 89 | 1011.8 |
| 20260507013303 | 45 | 293 | 1.7 | 1.7 | 0.00 | 1.55 | 0.72 | 89 | 1011.8 |
| 20260507012803 | 45 | 254 | 0.0 | 1.7 | 0.00 | 1.56 | 0.72 | 88 | 1011.5 |
| 20260507011804 | 45 | 112 | 1.7 | 2.6 | 0.00 | 1.59 | 0.72 | 88 | 1011.3 |
| 20260507010803 | 45 | 183 | 0.9 | 1.7 | 0.00 | 1.62 | 0.72 | 87 | 1011.6 |
| 20260507010303 | 45 | 289 | 0.9 | 1.7 | 0.00 | 1.62 | 0.72 | 87 | 1011.6 |
| 20260507005803 | 45 | 193 | 0.0 | 0.9 | 0.00 | 1.63 | 0.72 | 86 | 1011.4 |
| 20260507005305 | 45 | 5 | 0.0 | 1.7 | 0.00 | 1.63 | 0.72 | 86 | 1011.4 |
| 20260507004803 | 45 | 135 | 0.0 | 0.9 | 0.00 | 1.63 | 0.72 | 86 | 1011.5 |
| 20260507004303 | 45 | 242 | 0.9 | 1.7 | 0.00 | 1.64 | 0.72 | 86 | 1011.5 |
| 20260507002803 | 45 | 287 | 0.9 | 2.6 | 0.00 | 1.70 | 0.72 | 85 | 1011.2 |
| 20260507002306 | 45 | 226 | 0.0 | 2.6 | 0.00 | 1.75 | 0.72 | 85 | 1011.1 |
| 20260507001803 | 45 | 263 | 0.9 | 2.6 | 0.00 | 1.76 | 0.72 | 85 | 1011.2 |
| 20260507001303 | 46 | 251 | 0.9 | 4.3 | 0.00 | 1.76 | 0.72 | 85 | 1011.0 |
| 20260507000803 | 46 | 278 | 2.6 | 4.3 | 0.00 | 1.76 | 0.72 | 85 | 1011.2 |
| 20260507000306 | 46 | 261 | 1.7 | 5.2 | 0.00 | 1.76 | 0.72 | 85 | 1011.1 |
| 20260506235803 | 46 | 277 | 1.7 | 5.2 | 0.00 | 1.76 | 0.72 | 85 | 1011.0 |
| 20260506235306 | 46 | 270 | 2.6 | 4.3 | 0.00 | 1.76 | 0.72 | 85 | 1011.1 |
| 20260506234803 | 46 | 258 | 2.6 | 7.0 | 0.00 | 1.76 | 0.72 | 84 | 1010.8 |
| 20260506234303 | 46 | 253 | 3.5 | 7.0 | 0.00 | 1.76 | 0.72 | 84 | 1010.7 |
| 20260506233803 | 46 | 294 | 4.3 | 6.1 | 0.00 | 1.76 | 0.72 | 84 | 1010.8 |
| 20260506233303 | 46 | 248 | 0.0 | 7.0 | 0.00 | 1.76 | 0.72 | 84 | 1010.5 |
| 20260506232306 | 46 | 269 | 1.7 | 5.2 | 0.00 | 1.76 | 0.72 | 84 | 1010.5 |
| 20260506231804 | 46 | 291 | 2.6 | 5.2 | 0.00 | 1.76 | 0.72 | 84 | 1010.4 |
| 20260506231303 | 46 | 273 | 1.7 | 4.3 | 0.00 | 1.76 | 0.72 | 84 | 1010.3 |
| 20260506230803 | 47 | 266 | 0.9 | 2.6 | 0.00 | 1.76 | 0.72 | 84 | 1010.1 |
| 20260506230303 | 46 | 57 | 0.9 | 2.6 | 0.00 | 1.76 | 0.72 | 83 | 1010.0 |
| 20260506225305 | 46 | 332 | 0.0 | 2.6 | 0.00 | 1.76 | 0.72 | 83 | 1009.8 |
| 20260506224804 | 47 | 50 | 1.7 | 4.3 | 0.00 | 1.76 | 0.72 | 83 | 1009.9 |
| 20260506224304 | 47 | 303 | 0.9 | 4.3 | 0.00 | 1.76 | 0.72 | 84 | 1010.3 |
| 20260506223303 | 46 | 34 | 1.7 | 4.3 | 0.00 | 1.76 | 0.72 | 83 | 1010.3 |
| 20260506221803 | 47 | 301 | 1.7 | 5.2 | 0.00 | 1.76 | 0.72 | 84 | 1010.7 |
| 20260506221304 | 47 | 326 | 2.6 | 6.1 | 0.00 | 1.76 | 0.72 | 83 | 1010.4 |
| 20260506220804 | 47 | 343 | 1.7 | 7.0 | 0.00 | 1.76 | 0.72 | 83 | 1010.5 |
| 20260506220303 | 47 | 1 | 1.7 | 5.2 | 0.00 | 1.76 | 0.72 | 84 | 1010.3 |
| 20260506215803 | 47 | 264 | 1.7 | 8.7 | 0.00 | 1.76 | 0.72 | 84 | 1010.4 |
| 20260506214303 | 47 | 290 | 1.7 | 6.1 | 0.00 | 1.76 | 0.72 | 84 | 1010.2 |
| 20260506213804 | 47 | 310 | 1.7 | 7.8 | 0.00 | 1.76 | 0.72 | 85 | 1010.1 |
| 20260506213303 | 47 | 10 | 1.7 | 7.8 | 0.00 | 1.76 | 0.72 | 86 | 1010.2 |
| 20260506212803 | 47 | 281 | 3.5 | 7.8 | 0.00 | 1.76 | 0.72 | 86 | 1009.9 |
| 20260506211804 | 47 | 279 | 1.7 | 7.8 | 0.00 | 1.76 | 0.72 | 86 | 1010.0 |
| 20260506210804 | 46 | 264 | 4.3 | 7.8 | 0.00 | 1.77 | 0.72 | 88 | 1010.1 |
| 20260506205803 | 46 | 279 | 1.7 | 10.4 | 0.00 | 1.77 | 0.72 | 88 | 1010.0 |
| 20260506205306 | 46 | 294 | 2.6 | 10.4 | 0.00 | 1.77 | 0.72 | 89 | 1009.9 |
| 20260506204804 | 46 | 306 | 2.6 | 10.4 | 0.00 | 1.77 | 0.72 | 89 | 1009.8 |
| 20260506204304 | 46 | 300 | 4.3 | 10.4 | 0.00 | 1.77 | 0.72 | 89 | 1009.8 |
| 20260506203804 | 46 | 289 | 1.7 | 8.7 | 0.00 | 1.77 | 0.72 | 90 | 1009.7 |
| 20260506203303 | 46 | 15 | 1.7 | 11.3 | 0.00 | 1.77 | 0.72 | 91 | 1009.6 |
| 20260506202803 | 46 | 37 | 2.6 | 7.8 | 0.00 | 1.77 | 0.72 | 91 | 1009.4 |
| 20260506202306 | 46 | 265 | 2.6 | 6.1 | 0.01 | 1.77 | 0.72 | 92 | 1009.5 |
| 20260506201805 | 45 | 305 | 3.5 | 8.7 | 0.01 | 1.77 | 0.72 | 92 | 1009.4 |
| 20260506201303 | 46 | 320 | 2.6 | 8.7 | 0.01 | 1.77 | 0.72 | 92 | 1009.4 |
| 20260506200804 | 45 | 293 | 4.3 | 7.0 | 0.01 | 1.77 | 0.72 | 92 | 1009.3 |
| 20260506200303 | 45 | 282 | 1.7 | 7.0 | 0.01 | 1.77 | 0.72 | 92 | 1009.4 |
| 20260506195803 | 45 | 273 | 2.6 | 7.8 | 0.01 | 1.77 | 0.72 | 92 | 1009.4 |
| 20260506195305 | 45 | 291 | 5.2 | 7.8 | 0.01 | 1.77 | 0.72 | 92 | 1009.5 |
| 20260506194803 | 46 | 301 | 3.5 | 7.8 | 0.01 | 1.77 | 0.72 | 92 | 1009.5 |
| 20260506194304 | 45 | 277 | 3.5 | 7.8 | 0.00 | 1.77 | 0.72 | 92 | 1009.6 |
| 20260506193804 | 46 | 335 | 2.6 | 7.8 | 0.00 | 1.77 | 0.72 | 92 | 1009.7 |
| 20260506193303 | 46 | 274 | 5.2 | 7.8 | 0.00 | 1.77 | 0.72 | 92 | 1009.4 |
| 20260506192803 | 46 | 305 | 2.6 | 7.8 | 0.00 | 1.77 | 0.72 | 92 | 1009.5 |
| 20260506190803 | 46 | 111 | 0.9 | 6.1 | 0.00 | 1.77 | 0.71 | 91 | 1009.4 |
| 20260506190304 | 46 | 353 | 2.6 | 7.8 | 0.00 | 1.77 | 0.71 | 91 | 1009.1 |
| 20260506185804 | 46 | 290 | 2.6 | 6.1 | 0.00 | 1.77 | 0.71 | 91 | 1008.9 |
| 20260506185306 | 46 | 263 | 2.6 | 6.1 | 0.00 | 1.77 | 0.71 | 91 | 1009.1 |
| 20260506184803 | 46 | 349 | 3.5 | 7.0 | 0.00 | 1.77 | 0.71 | 92 | 1009.1 |
| 20260506184303 | 46 | 288 | 5.2 | 7.8 | 0.00 | 1.77 | 0.71 | 91 | 1009.1 |
| 20260506183303 | 46 | 328 | 2.6 | 7.8 | 0.00 | 1.77 | 0.71 | 92 | 1009.2 |
| 20260506182804 | 46 | 261 | 1.7 | 11.3 | 0.00 | 1.77 | 0.71 | 92 | 1009.0 |
| 20260506182306 | 46 | 24 | 4.3 | 11.3 | 0.00 | 1.77 | 0.71 | 92 | 1008.9 |
| 20260506181303 | 46 | 263 | 4.3 | 7.0 | 0.00 | 1.77 | 0.71 | 92 | 1008.8 |
| 20260506180803 | 46 | 324 | 4.3 | 7.8 | 0.00 | 1.77 | 0.71 | 92 | 1008.6 |
| 20260506180303 | 46 | 13 | 4.3 | 7.0 | 0.00 | 1.77 | 0.71 | 92 | 1008.5 |
| 20260506174805 | 46 | 313 | 2.6 | 8.7 | 0.00 | 1.79 | 0.71 | 92 | 1008.4 |
| 20260506174303 | 46 | 308 | 1.7 | 7.8 | 0.01 | 1.79 | 0.71 | 92 | 1008.4 |
| 20260506173803 | 46 | 353 | 4.3 | 11.3 | 0.01 | 1.79 | 0.71 | 92 | 1008.6 |
| 20260506172803 | 47 | 38 | 1.7 | 6.1 | 0.01 | 1.79 | 0.71 | 92 | 1008.6 |
| 20260506172306 | 47 | 52 | 2.6 | 8.7 | 0.01 | 1.79 | 0.71 | 92 | 1008.3 |
| 20260506171803 | 47 | 307 | 0.9 | 4.3 | 0.01 | 1.79 | 0.71 | 92 | 1008.3 |
| 20260506171304 | 46 | 342 | 1.7 | 6.1 | 0.01 | 1.79 | 0.71 | 92 | 1008.1 |
| 20260506170804 | 47 | 344 | 1.7 | 6.1 | 0.01 | 1.78 | 0.71 | 92 | 1008.2 |
| 20260506170303 | 47 | 9 | 4.3 | 6.1 | 0.01 | 1.78 | 0.71 | 92 | 1008.2 |
| 20260506165804 | 46 | 346 | 1.7 | 7.0 | 0.01 | 1.78 | 0.71 | 92 | 1008.2 |
| 20260506164804 | 46 | 341 | 0.9 | 4.3 | 0.02 | 1.78 | 0.71 | 92 | 1008.3 |
| 20260506164303 | 47 | 217 | 0.9 | 2.6 | 0.02 | 1.78 | 0.70 | 92 | 1008.4 |
| 20260506163804 | 47 | 311 | 0.0 | 4.3 | 0.02 | 1.78 | 0.70 | 92 | 1008.3 |
| 20260506163304 | 46 | 321 | 1.7 | 4.3 | 0.03 | 1.78 | 0.70 | 92 | 1008.3 |
| 20260506162306 | 46 | 323 | 2.6 | 7.0 | 0.04 | 1.78 | 0.70 | 92 | 1008.2 |
| 20260506161803 | 46 | 24 | 1.7 | 4.3 | 0.04 | 1.77 | 0.70 | 92 | 1008.4 |
| 20260506160804 | 46 | 306 | 1.7 | 4.3 | 0.04 | 1.77 | 0.70 | 92 | 1008.5 |
| 20260506160303 | 45 | 348 | 2.6 | 5.2 | 0.04 | 1.77 | 0.70 | 92 | 1008.7 |
| 20260506155803 | 45 | 27 | 1.7 | 6.1 | 0.04 | 1.77 | 0.70 | 92 | 1008.4 |
| 20260506155306 | 45 | 319 | 2.6 | 6.1 | 0.04 | 1.77 | 0.69 | 92 | 1008.4 |
| 20260506154803 | 45 | 288 | 0.9 | 4.3 | 0.03 | 1.76 | 0.69 | 92 | 1008.7 |
| 20260506154303 | 45 | 30 | 2.6 | 4.3 | 0.04 | 1.76 | 0.69 | 92 | 1008.8 |
| 20260506152803 | 45 | 345 | 1.7 | 6.1 | 0.02 | 1.73 | 0.66 | 92 | 1008.8 |
| 20260506151804 | 45 | 26 | 1.7 | 4.3 | 0.03 | 1.73 | 0.66 | 92 | 1008.6 |
| 20260506151304 | 45 | 257 | 0.9 | 2.6 | 0.04 | 1.73 | 0.66 | 92 | 1008.3 |
| 20260506150804 | 45 | 97 | 0.9 | 2.6 | 0.04 | 1.73 | 0.66 | 92 | 1008.4 |
| 20260506150304 | 45 | 3 | 1.7 | 4.3 | 0.04 | 1.73 | 0.66 | 92 | 1008.5 |
| 20260506145305 | 45 | 96 | 0.9 | 2.6 | 0.05 | 1.73 | 0.65 | 92 | 1008.1 |
| 20260506144804 | 45 | 113 | 0.9 | 2.6 | 0.06 | 1.73 | 0.65 | 92 | 1008.2 |
| 20260506143303 | 44 | 43 | 0.9 | 2.6 | 0.06 | 1.72 | 0.64 | 92 | 1008.0 |
| 20260506142804 | 44 | 27 | 0.9 | 5.2 | 0.07 | 1.71 | 0.64 | 92 | 1008.1 |
| 20260506142306 | 44 | 60 | 2.6 | 5.2 | 0.07 | 1.70 | 0.63 | 92 | 1007.9 |
| 20260506141804 | 44 | 91 | 1.7 | 4.3 | 0.07 | 1.70 | 0.63 | 92 | 1008.2 |
| 20260506140303 | 44 | 64 | 1.7 | 2.6 | 0.09 | 1.69 | 0.61 | 92 | 1008.4 |
| 20260506135804 | 44 | 348 | 0.9 | 4.3 | 0.10 | 1.68 | 0.61 | 92 | 1008.3 |
| 20260506134804 | 44 | 14 | 1.7 | 2.6 | 0.12 | 1.67 | 0.60 | 92 | 1008.5 |
| 20260506134304 | 44 | 38 | 1.7 | 2.6 | 0.13 | 1.67 | 0.59 | 92 | 1008.4 |
| 20260506133803 | 44 | 242 | 0.9 | 6.1 | 0.15 | 1.66 | 0.59 | 92 | 1008.4 |
| 20260506133303 | 44 | 24 | 2.6 | 5.2 | 0.15 | 1.65 | 0.58 | 92 | 1008.8 |
| 20260506132803 | 44 | 275 | 1.7 | 5.2 | 0.16 | 1.64 | 0.57 | 92 | 1008.7 |
| 20260506132307 | 44 | 43 | 2.6 | 5.2 | 0.16 | 1.64 | 0.56 | 92 | 1008.4 |
| 20260506131803 | 44 | 327 | 0.9 | 5.2 | 0.16 | 1.63 | 0.56 | 92 | 1008.5 |
| 20260506130803 | 44 | 303 | 1.7 | 2.6 | 0.14 | 1.60 | 0.53 | 92 | 1008.7 |
| 20260506130304 | 44 | 117 | 0.9 | 4.3 | 0.14 | 1.59 | 0.52 | 92 | 1008.7 |
| 20260506125306 | 44 | 18 | 1.7 | 4.3 | 0.12 | 1.57 | 0.49 | 92 | 1008.6 |
| 20260506124804 | 44 | 43 | 1.7 | 4.3 | 0.11 | 1.55 | 0.48 | 92 | 1008.5 |
| 20260506124305 | 44 | 251 | 0.9 | 2.6 | 0.10 | 1.53 | 0.46 | 92 | 1008.7 |
| 20260506123304 | 44 | 57 | 1.7 | 4.3 | 0.07 | 1.50 | 0.43 | 92 | 1008.6 |
| 20260506122803 | 44 | 12 | 0.9 | 4.3 | 0.05 | 1.48 | 0.41 | 92 | 1008.3 |
| 20260506122305 | 44 | 45 | 1.7 | 5.2 | 0.05 | 1.48 | 0.40 | 92 | 1008.4 |
| 20260506121804 | 44 | 89 | 0.9 | 5.2 | 0.04 | 1.47 | 0.39 | 92 | 1008.4 |
| 20260506121303 | 44 | 46 | 1.7 | 7.0 | 0.04 | 1.46 | 0.39 | 92 | 1008.3 |
| 20260506120803 | 44 | 43 | 3.5 | 6.1 | 0.05 | 1.46 | 0.39 | 92 | 1008.3 |
| 20260506120304 | 44 | 37 | 2.6 | 6.1 | 0.05 | 1.46 | 0.38 | 92 | 1008.3 |
| 20260506115805 | 44 | 63 | 2.6 | 6.1 | 0.06 | 1.45 | 0.38 | 92 | 1008.4 |
| 20260506115306 | 44 | 70 | 2.6 | 6.1 | 0.06 | 1.45 | 0.37 | 92 | 1008.4 |
| 20260506114804 | 44 | 33 | 2.6 | 7.0 | 0.07 | 1.44 | 0.37 | 92 | 1008.6 |
| 20260506114303 | 44 | 44 | 2.6 | 7.0 | 0.07 | 1.44 | 0.37 | 92 | 1008.7 |
| 20260506113804 | 44 | 22 | 2.6 | 6.1 | 0.08 | 1.44 | 0.36 | 92 | 1008.7 |
| 20260506113303 | 44 | 30 | 1.7 | 5.2 | 0.07 | 1.43 | 0.36 | 92 | 1008.6 |
| 20260506112803 | 44 | 63 | 2.6 | 6.1 | 0.08 | 1.43 | 0.36 | 92 | 1008.6 |
| 20260506112305 | 44 | 45 | 1.7 | 5.2 | 0.09 | 1.43 | 0.35 | 92 | 1008.9 |
| 20260506111803 | 44 | 73 | 2.6 | 7.0 | 0.09 | 1.42 | 0.35 | 92 | 1008.8 |
| 20260506111303 | 44 | 53 | 2.6 | 7.0 | 0.09 | 1.42 | 0.35 | 92 | 1008.8 |
| 20260506110803 | 44 | 37 | 2.6 | 6.1 | 0.09 | 1.41 | 0.34 | 92 | 1009.1 |
| 20260506110303 | 44 | 338 | 1.7 | 5.2 | 0.09 | 1.40 | 0.33 | 92 | 1009.1 |
| 20260506105305 | 44 | 2 | 2.6 | 4.3 | 0.08 | 1.38 | 0.31 | 92 | 1008.8 |
| 20260506104804 | 44 | 84 | 0.9 | 5.2 | 0.07 | 1.38 | 0.30 | 92 | 1008.8 |
| 20260506103803 | 44 | 60 | 1.7 | 4.3 | 0.07 | 1.36 | 0.29 | 92 | 1008.6 |
| 20260506103303 | 44 | 52 | 0.9 | 2.6 | 0.07 | 1.36 | 0.28 | 92 | 1008.8 |
| 20260506102803 | 44 | 65 | 2.6 | 2.6 | 0.06 | 1.35 | 0.28 | 92 | 1008.7 |
| 20260506102305 | 44 | 31 | 0.9 | 2.6 | 0.06 | 1.34 | 0.26 | 92 | 1008.7 |
| 20260506101805 | 44 | 32 | 0.9 | 4.3 | 0.06 | 1.33 | 0.26 | 92 | 1008.6 |
| 20260506101304 | 44 | 73 | 1.7 | 6.1 | 0.06 | 1.33 | 0.25 | 92 | 1008.5 |
| 20260506100803 | 44 | 61 | 4.3 | 6.1 | 0.07 | 1.32 | 0.24 | 92 | 1008.3 |
| 20260506100303 | 44 | 87 | 4.3 | 7.0 | 0.08 | 1.31 | 0.24 | 92 | 1008.4 |
| 20260506095803 | 44 | 73 | 3.5 | 7.8 | 0.09 | 1.31 | 0.24 | 92 | 1008.4 |
| 20260506094803 | 44 | 69 | 5.2 | 7.0 | 0.09 | 1.30 | 0.23 | 92 | 1008.4 |
| 20260506094303 | 44 | 67 | 1.7 | 7.0 | 0.09 | 1.29 | 0.22 | 92 | 1008.8 |
| 20260506093804 | 44 | 73 | 5.2 | 7.0 | 0.09 | 1.29 | 0.22 | 92 | 1008.6 |
| 20260506093303 | 44 | 66 | 2.6 | 6.1 | 0.09 | 1.29 | 0.22 | 92 | 1008.8 |
| 20260506092305 | 44 | 67 | 2.6 | 5.2 | 0.09 | 1.28 | 0.21 | 92 | 1009.1 |
| 20260506090803 | 44 | 21 | 2.6 | 6.1 | 0.08 | 1.25 | 0.18 | 92 | 1009.3 |
| 20260506090303 | 44 | 54 | 2.6 | 6.1 | 0.08 | 1.23 | 0.16 | 92 | 1009.4 |
| 20260506085305 | 44 | 358 | 0.9 | 6.1 | 0.07 | 1.21 | 0.14 | 92 | 1009.2 |
| 20260506084803 | 44 | 84 | 4.3 | 6.1 | 0.07 | 1.21 | 0.13 | 92 | 1009.0 |
| 20260506084304 | 44 | 58 | 1.7 | 7.0 | 0.06 | 1.20 | 0.13 | 92 | 1009.2 |
| 20260506083803 | 44 | 61 | 1.7 | 7.0 | 0.06 | 1.20 | 0.13 | 92 | 1009.0 |
| 20260506083304 | 44 | 38 | 2.6 | 7.0 | 0.06 | 1.20 | 0.13 | 92 | 1009.1 |
| 20260506082804 | 44 | 49 | 2.6 | 8.7 | 0.06 | 1.20 | 0.13 | 92 | 1008.9 |
| 20260506082305 | 44 | 66 | 6.1 | 8.7 | 0.05 | 1.19 | 0.12 | 92 | 1008.9 |
| 20260506081803 | 45 | 275 | 2.6 | 11.3 | 0.04 | 1.18 | 0.11 | 92 | 1009.6 |
| 20260506081307 | 45 | 86 | 8.7 | 11.3 | 0.03 | 1.18 | 0.10 | 92 | 1008.9 |
| 20260506080804 | 45 | 316 | 2.6 | 11.3 | 0.03 | 1.18 | 0.09 | 92 | 1009.4 |
| 20260506080303 | 45 | 64 | 2.6 | 10.4 | 0.01 | 1.16 | 0.08 | 92 | 1009.3 |
| 20260506073303 | 46 | 17 | 2.6 | 11.3 | 0.00 | 1.16 | 0.07 | 92 | 1008.7 |
| 20260506072803 | 46 | 43 | 4.3 | 8.7 | 0.00 | 1.16 | 0.07 | 92 | 1008.9 |
| 20260506072305 | 46 | 36 | 5.2 | 10.4 | 0.00 | 1.16 | 0.07 | 92 | 1008.9 |
| 20260506071803 | 46 | 49 | 7.0 | 10.4 | 0.01 | 1.16 | 0.07 | 92 | 1008.9 |
| 20260506071303 | 46 | 77 | 6.1 | 8.7 | 0.01 | 1.16 | 0.07 | 92 | 1008.8 |
| 20260506062306 | 47 | 75 | 4.3 | 6.1 | 0.02 | 1.15 | 0.06 | 92 | 1009.1 |
| 20260506061304 | 47 | 53 | 5.2 | 7.0 | 0.02 | 1.15 | 0.06 | 92 | 1009.4 |